Regional Weather Roundup
Issued by NWS

Home | Current Version | Previous Version | Graphics & Text | Print | Product List | Glossary On
Versions: 1 2 3 4 5 6 7 8 9 10 11 12 13 14 15 16 17 18 19 20 21 22 23 24 25 26 27 28 29 30 31 32 33 34 35 36 37 38 39 40 41 42 43 44 45 46 47 48 49 50
000
ASUS43 KDTX 151110
RWRMI
MICHIGAN HOURLY REGIONAL WEATHER ROUNDUP
NATIONAL WEATHER SERVICE DETROIT/PONTIAC MI
600 AM EST FRI DEC 15 2017

NOTE: "FAIR" INDICATES FEW OR NO CLOUDS BELOW 12,000 FEET WITH NO
SIGNIFICANT WEATHER AND/OR OBSTRUCTION TO VISIBILITY.

MIZ047>049-052>055-059>063-066>070-074>076-081>083-151200-
SOUTHEAST LOWER MICHIGAN

CITY           SKY/WX    TMP DP  RH WIND       PRES   REMARKS
ADRIAN         CLOUDY    13   8  81 CALM      29.94F
ALMA           FLURRIES  19  18  94 S6        29.86F WCI  11
ANN ARBOR      CLOUDY    18  10  71 S8        29.92F WCI   8
BAD AXE        CLOUDY    15  12  89 S8        29.88F WCI   4
CARO           CLOUDY    17  14  89 S5        29.87F WCI   9
DETROIT CITY   CLOUDY    19   9  65 SW9       29.94F WCI   8
DETROIT        CLOUDY    20   9  62 S10       29.95F WCI   9
FLINT          FLURRIES  18  13  80 S8        29.89F WCI   8
GROSSE ILE     CLOUDY    20  10  65 SW7       29.95S WCI  11
HILLSDALE      CLOUDY    18  10  73 S6        29.89S WCI   9
HOWELL         CLOUDY    18  14  83 S6        29.88F WCI  10

CITY           SKY/WX    TMP DP  RH WIND       PRES   REMARKS
JACKSON        CLOUDY    20  11  68 S7        29.89F WCI  11
LAMBERTVILLE   CLOUDY    20  11  69 S7        29.95F WCI  11
LANSING        CLOUDY    19  14  81 S10       29.88F WCI   7
LAPEER         CLOUDY    17  13  84 S6        29.89F WCI   9
MASON          CLOUDY    20  12  70 CALM      29.88F
MONROE         CLOUDY    19   8  61 S3        29.94F
MT. CLEMENS    CLOUDY    18  13  79 SW9       29.91F WCI   7
PONTIAC        CLOUDY    17  12  80 SW6       29.88F WCI   9
PORT HOPE        N/A     18  11  74 SW5       29.86F WCI  11
PORT HURON     CLOUDY    16  12  86 SW5       29.92F WCI   9
TRI CITIES     CLOUDY    17  16  95 S7        29.87F WCI   8
MIDLAND        CLOUDY    18  15  86 S5        29.86F WCI  11
TROY           CLOUDY    19  10  68 SW7       29.94F WCI  10
SAGINAW HB     CLOUDY    18  16  93 S7        29.87F WCI   8
$$
MIZ043>046-050>051-056>058-064>065-071>073-077>080-151200-
SOUTHWEST LOWER MICHIGAN

CITY           SKY/WX    TMP DP  RH WIND       PRES   REMARKS
BATTLE CREEK   CLOUDY    19  12  74 SW13      29.88F WCI   6
BENTON HARBOR  CLOUDY    22  13  68 S9        29.89F WCI  12
BIG RAPIDS     LGT SNOW  19  17  90 S3        29.80F
COLDWATER      CLOUDY    20  13  73 SW6       29.91S WCI  12
HOLLAND        CLOUDY    24  17  74 S8        29.86F WCI  15
GRAND RAPIDS   CLOUDY    22  17  81 S12       29.84F WCI  10
IONIA          CLOUDY    21  17  82 S10       29.84F WCI  10
KALAMAZOO      CLOUDY    20  12  71 SW12      29.89F WCI   8
LUDINGTON      LGT SNOW  25  22  89 W7        29.79F VSB 1   WCI  18
MARSHALL       CLOUDY    19  11  72 SW7       29.89F WCI   9
MOUNT PLEASANT FLURRIES  20  16  83 S3        29.83F
MUSKEGON       FLURRIES  29  18  63 W15G24    29.83F WCI  18
SOUTH HAVEN    CLOUDY    24  16  70 S8        29.88F WCI  15
$$
MIZ016>042-151200-
NORTHERN LOWER MICHIGAN

CITY           SKY/WX    TMP DP  RH WIND       PRES   REMARKS
ALPENA         LGT SNOW  19  17  92 S9        29.81F FOG     WCI   8
BEAVER ISLAND  LGT SNOW  24  22  91 CALM      29.73F VSB 3/4
BELLAIRE       LGT SNOW  21  20  96 S7        29.77F WCI  13
CADILLAC       LGT SNOW  18  16  91 S7        29.73F WCI   9
CHARLEVOIX     LGT SNOW  22  22 100 S6        29.76F VSB 1   WCI  15
FRANKFORT      LGT SNOW  26  22  87 W13G20    29.77F WCI  14
GAYLORD        LGT SNOW  17  13  84 S8        29.72F FOG     WCI   7
GRAYLING       LGT SNOW  18  14  85 S8        29.76F WCI   7
HARBOR SPRINGS LGT SNOW  21  20  96 SW6       29.73F VSB 1   WCI  14
HOUGHTON LAKE  LGT SNOW  18  14  84 S7        29.78F FOG     WCI   9
MANISTEE       LGT SNOW  25  21  85 W17       29.78F FOG     WCI  12
OSCODA         LGT SNOW  18  12  79 SW9       29.84F WCI   6
PELLSTON       LGT SNOW  20  18  92 SE5       29.74F VSB 3/4 WCI  13
ROGERS CITY    LGT SNOW  19  16  87 S12       29.79F WCI   7
TRAVERSE CITY  LGT SNOW  22  18  85 S5        29.76F FOG     WCI  16
$$
MIZ007>008-015-151200-
EASTERN UPPER MICHIGAN

CITY           SKY/WX    TMP DP  RH WIND       PRES   REMARKS
KINROSS        LGT SNOW  16  14  92 SE5       29.74F FOG     WCI   9
MACKINAC ISLAN LGT SNOW  23  19  85 S5        29.73F WCI  17
NEWBERRY       LGT SNOW  16  16  97 CALM      29.71F
S. S. MARIE    LGT SNOW  16  13  88 CALM      29.74F FOG
MUNISING         N/A     16  13  88 SW3       29.73F
$$
MIZ004>006-011>014-085-151200-
CENTRAL UPPER MICHIGAN

CITY           SKY/WX    TMP DP  RH WIND       PRES   REMARKS
MANISTIQUE     LGT SNOW  17  12  82 W6        29.73F WCI   8
ESCANABA       LGT SNOW  18  14  84 W8        29.76F FOG     WCI   8
MENOMINEE      FLURRIES  18  15  88 W5        29.80F WCI  11
SAWYER-GWINN   PTCLDY    12  10  89 W8        29.70F WCI   1
$$
MIZ001>003-009>011-084-151200-
WESTERN UPPER MICHIGAN

CITY           SKY/WX    TMP DP  RH WIND       PRES   REMARKS
IRON MOUNTAIN  PTCLDY    14   9  80 W10       29.73F WCI   1
HOUGHTON       LGT SNOW  20  12  71 NW10      29.72S WCI   9
COPPER HARBOR    N/A     23  17  78 NE17      29.73F WCI   9
IRONWOOD       LGT SNOW  13  10  88 W10       29.80S FOG     WCI   0
$$

ABBREVIATIONS USED IN REMARKS
   TC - TEMPERATURE IN CELSIUS
  WCI - WIND CHILL INDEX
   HX - HEAT INDEX
  VSB - VISIBILITY





USA.gov is the U.S. government's official web portal to all federal, state and local government web resources and services.